Weather in Kayasan

Russia / Kurgan Oblast     55°12′22″N   62°14′35″E
temp.,
°C
wind,
m/s
gust,
m/s
humid.,
%
clouds,
%
prec.,
mm/h
press.,
hPa
HPBL,
m
16 may, sun
sun1623:00+21wnw464696 0.0 102075
02:00+19w495440 0.0 1021141
05:00+18w34595 0.0 102160
08:00+23wnw464718 0.0 1021305
11:00+29wnw45316 0.0 10211107
14:00+31w56225 0.0 10203183
17:00+32wsw461915 0.0 10193674
20:00+24wnw6104174 0.1 1019175
17 may, mon
mon1723:00+21wnw224816 0.2 101911
02:00+19wnw344789 0.0 102051
05:00+18w33534 0.0 102033
08:00+24w35415 0.0 1020214
11:00+29wsw58245 0.0 10192836
14:00+31wsw582159 0.0 10183566
17:00+29nw592984 0.0 1017696
20:00+21ssw475483 0.4 1017124
18 may, tue
tue1823:00+19wsw5125738 0.4 1017200
02:00+19w4957100 0.0 1016128
05:00+18wnw4106292 0.0 1016163
08:00+22nw68565 0.0 1016433
11:00+26nw7103812 0.0 10161995
14:00+27nw792911 0.0 10152666
17:00+27nnw89279 0.0 10142685
20:00+21n5104685 0.0 1015313
19 may, wed
wed1923:00+17nne6126199 0.0 1019610
02:00+14nne6116675 0.0 1020748
05:00+11nne61076100 0.0 1023849
08:00+13nne68643 0.0 1025897
11:00+16ne67420 0.0 10251300
14:00+19ne563680 0.0 10251513
17:00+20ne453629 0.0 10251531
20:00+16ne2252100 0.0 102522
20 may, thu
thu2023:00+13ene225858 0.0 102616
02:00+11sse226497 0.0 102611
05:00+10ssw3362100 0.0 102828
08:00+16sw34487 0.0 1028352
11:00+21sw44355 0.0 10271213
14:00+23sw45286 0.0 10251611
17:00+25sw562676 0.0 10241728
20:00+21ssw46411 0.0 102391